FW3988 Weather Reports


time (UTC)temp
F
wind
direction
speed
knots
gust
knots
rain 1hr
in
rain 24hr
in
rain mn
in
humidity
%
barometer
mb
20260503214545 84 261 5.2 9.6 0.00 0.00 0.00 65 1012.2
20260503213044 84 255 6.1 12.2 0.00 0.00 0.00 66 1012.3
20260503211527 84 219 6.1 10.4 0.00 0.00 0.00 67 1012.4
20260503204549 85 201 3.5 10.4 0.00 0.00 0.00 67 1012.5
20260503203103 85 207 3.5 8.7 0.00 0.00 0.00 71 1012.6
20260503201543 85 232 3.5 9.6 0.00 0.00 0.00 72 1012.8
20260503200002 83 233 7.0 10.4 0.00 0.00 0.00 73 1013.0
20260503194601 84 233 5.2 10.4 0.00 0.00 0.00 74 1013.3
20260503194501 83 231 5.2 11.3 0.00 0.00 0.00 74 1013.3
20260503193052 83 219 6.1 13.0 0.00 0.00 0.00 74 1013.5
20260503191548 84 262 5.2 10.4 0.00 0.00 0.00 73 1013.7
20260503190137 82 208 7.0 9.6 0.00 0.00 0.00 74 1013.7
20260503184511 83 227 5.2 10.4 0.00 0.00 0.00 74 1013.7
20260503183101 83 238 6.1 10.4 0.00 0.00 0.00 74 1013.7
20260503181604 83 219 4.3 8.7 0.00 0.00 0.00 72 1013.7
20260503180148 83 218 3.5 8.7 0.00 0.00 0.00 71 1013.7
20260503174540 82 200 5.2 9.6 0.00 0.00 0.00 72 1013.9
20260503173042 83 158 5.2 9.6 0.00 0.00 0.00 67 1014.0
20260503171512 83 213 4.3 8.7 0.00 0.00 0.00 60 1014.0
20260503160142 84 199 0.0 2.6 0.00 0.00 0.00 58 1014.0
20260503140139 76 20 0.0 1.7 0.00 0.00 0.00 67 1013.4
20260503130147 72 20 0.0 0.0 0.00 0.00 0.00 64 1012.6
20260503120134 72 5 0.0 1.7 0.00 0.00 0.00 61 1011.8
20260503110142 72 5 0.0 1.7 0.00 0.00 0.00 60 1011.3
20260503100155 73 355 0.0 0.0 0.00 0.00 0.00 64 1011.0
20260503081549 76 323 0.0 1.7 0.00 0.00 0.00 64 1011.5
20260503080149 76 322 0.0 0.0 0.00 0.00 0.00 66 1011.8
20260503071559 77 322 0.0 0.0 0.00 0.00 0.00 66 1012.0
20260503070140 77 322 0.0 0.0 0.00 0.00 0.00 69 1011.9
20260503054546 77 322 0.0 1.7 0.00 0.00 0.00 70 1011.7
20260503053022 78 322 0.0 1.7 0.00 0.00 0.00 72 1011.9
20260503051557 78 322 0.0 1.7 0.00 0.00 0.00 71 1011.9
20260503050013 78 324 0.0 2.6 0.00 0.00 0.00 72 1011.9
20260503044609 78 310 0.9 2.6 0.00 0.00 0.00 71 1011.9
20260503043055 79 314 1.7 2.6 0.00 0.00 0.00 69 1012.1
20260503041545 79 313 0.0 3.5 0.00 0.00 0.00 68 1011.7
20260503040006 79 310 0.9 3.5 0.00 0.00 0.00 67 1011.5
20260503034502 79 277 0.9 5.2 0.00 0.00 0.00 66 1011.2
20260503033108 79 325 1.7 5.2 0.00 0.00 0.00 63 1010.9
20260503031604 80 281 0.9 5.2 0.00 0.00 0.00 61 1010.7
20260503030150 80 286 2.6 6.1 0.00 0.00 0.00 57 1010.5
20260503024536 79 309 0.9 7.8 0.00 0.00 0.00 63 1010.1
20260503023028 79 319 0.9 7.0 0.00 0.00 0.00 69 1009.9
20260503021606 79 281 2.6 7.0 0.00 0.00 0.00 71 1010.0
20260503020139 80 304 4.3 7.0 0.00 0.00 0.00 71 1009.8
20260503014520 80 304 3.5 9.6 0.00 0.00 0.00 68 1009.7
20260503013011 80 286 2.6 10.4 0.00 0.00 0.00 68 1009.6
20260503011506 81 281 5.2 11.3 0.00 0.00 0.00 67 1009.7
20260503010029 82 284 7.0 10.4 0.00 0.00 0.00 66 1009.7
20260503004509 83 292 3.5 9.6 0.00 0.00 0.00 65 1009.2
20260503003106 83 257 4.3 9.6 0.00 0.00 0.00 64 1008.9
20260503001544 83 258 4.3 8.7 0.00 0.00 0.00 64 1009.0
20260503000134 83 323 6.1 12.2 0.00 0.00 0.00 60 1008.9
20260502234518 84 279 6.1 11.3 0.00 0.00 0.00 54 1009.0
20260502233001 85 279 6.1 10.4 0.00 0.00 0.00 53 1008.9
20260502231602 85 302 5.2 8.7 0.00 0.00 0.00 51 1008.7
20260502230006 86 304 4.3 9.6 0.00 0.00 0.00 45 1008.8
20260502224505 86 262 4.3 8.7 0.00 0.00 0.00 45 1008.9
20260502223052 85 263 6.1 12.2 0.00 0.00 0.00 48 1008.8
20260502221545 86 275 4.3 12.2 0.00 0.00 0.00 52 1009.0
20260502220133 86 258 7.0 12.2 0.00 0.00 0.00 54 1009.4